Weather History for Richmond, KY

Change the Weather History Date:

Friday, February 8, 2013

  Actual Average (KLOZ) Record (KLOZ)
Temperature  
Mean Temperature 42 °F 38 °F  
Max Temperature 50 °F 48 °F 70 °F (2009)
Min Temperature 33 °F 28 °F -3 °F (1967)
Degree Days  
Heating Degree Days 24 27  
Month to date heating degree days 221  
Since 1 July heating degree days 2784  
Cooling Degree Days 0 0  
Month to date cooling degree days 0  
Year to date cooling degree days 0  
Moisture  
Dew Point 34 °F    
Average Humidity 82    
Maximum Humidity 93    
Minimum Humidity 66    
Precipitation  
Precipitation 0.00 in 0.13 in 0.83 in (1957)
Month to date precipitation 1.03  
Year to date precipitation 4.57  
Sea Level Pressure  
Sea Level Pressure 30.07 in    
Wind  
Wind Speed 10 mph (WNW)    
Max Wind Speed 17 mph    
Max Gust Speed 28 mph    
Visibility 10 miles    
Events      
T = Trace of Precipitation, MM = Missing Value Source: NWS Daily Summary

Daily Weather History Graph

Daily Weather History Graph

Search for Another Location

Airport:

Trip Planner

Search our weather history database for the weather conditions in past years. The results will help you decide how hot, cold, wet, or windy it might be!

Date:

Astronomy

Feb. 08, 2013 Rise Set
Actual Time 7:34 AM EST 6:09 PM EST
Civil Twilight 7:07 AM EST 6:36 PM EST
Nautical Twilight 6:36 AM EST 7:07 PM EST
Astronomical Twilight 6:05 AM EST 7:38 PM EST
Moon 6:01 AM EST (2/8) 4:42 PM EST (2/8)
Length of Visible Light 11h 29m
Length of Day
10h 35m
Waning Crescent, 3% of the Moon is Illuminated
Feb 8
Waning Crescent
Feb 10
New
Feb 17
First Quarter
Feb 25
Full
Mar 4
Last Quarter

Hourly Weather History & Observations

Time (EST) Temp. Windchill Dew Point Humidity Pressure Visibility Wind Dir Wind Speed Gust Speed Precip Events Conditions
12:15 AM 50.0 °F - 39.2 °F 66% 29.88 in 10.0 mi South 6.9 mph - N/A   Scattered Clouds
12:35 AM 48.2 °F - 41.0 °F 76% 29.88 in 10.0 mi South 6.9 mph - N/A   Clear
12:55 AM 48.2 °F - 41.0 °F 76% 29.88 in 10.0 mi South 8.1 mph - N/A   Clear
1:15 AM 48.2 °F - 41.0 °F 76% 29.88 in 10.0 mi SSW 6.9 mph - N/A   Clear
1:35 AM 48.2 °F - 41.0 °F 76% 29.86 in 10.0 mi South 9.2 mph - N/A   Scattered Clouds
1:55 AM 46.4 °F 42.9 °F 41.0 °F 81% 29.86 in 10.0 mi South 6.9 mph - N/A   Scattered Clouds
2:15 AM 46.4 °F 42.9 °F 41.0 °F 81% 29.85 in 10.0 mi South 6.9 mph - N/A   Scattered Clouds
2:35 AM 48.2 °F - 41.0 °F 76% 29.85 in 10.0 mi South 10.4 mph - N/A   Overcast
2:55 AM 48.2 °F - 41.0 °F 76% 29.84 in 10.0 mi SSW 10.4 mph - N/A   Overcast
3:15 AM 48.2 °F - 41.0 °F 76% 29.84 in 10.0 mi SSW 10.4 mph - N/A   Overcast
3:35 AM 48.2 °F - 41.0 °F 76% 29.83 in 10.0 mi SSW 9.2 mph 17.3 mph N/A   Overcast
3:55 AM 48.2 °F - 41.0 °F 76% 29.83 in 10.0 mi SSW 12.7 mph - N/A   Overcast
4:15 AM 48.2 °F - 42.8 °F 82% 29.83 in 10.0 mi SW 8.1 mph - N/A   Overcast
4:35 AM 48.2 °F - 42.8 °F 82% 29.84 in 10.0 mi WSW 8.1 mph - N/A   Overcast
4:55 AM 46.4 °F 42.4 °F 42.8 °F 87% 29.85 in 7.0 mi WSW 8.1 mph - N/A   Overcast
5:15 AM 46.4 °F 41.9 °F 42.8 °F 87% 29.86 in 10.0 mi WSW 9.2 mph - N/A   Overcast
5:35 AM 46.4 °F 41.9 °F 42.8 °F 87% 29.86 in 7.0 mi SW 9.2 mph - N/A   Overcast
5:55 AM 46.4 °F 42.4 °F 44.6 °F 93% 29.86 in 5.0 mi SW 8.1 mph - N/A   Overcast
6:15 AM 46.4 °F 42.4 °F 44.6 °F 93% 29.86 in 7.0 mi WSW 8.1 mph - N/A   Overcast
6:35 AM 46.4 °F 41.5 °F 44.6 °F 93% 29.88 in 5.0 mi West 10.4 mph - N/A   Overcast
7:15 AM 44.6 °F 38.4 °F 41.0 °F 87% 29.91 in 7.0 mi NW 12.7 mph 21.9 mph N/A   Overcast
7:35 AM 42.8 °F 35.1 °F 41.0 °F 93% 29.93 in 10.0 mi NW 16.1 mph 24.2 mph N/A   Overcast
7:55 AM 42.8 °F 35.1 °F 39.2 °F 87% 29.94 in 10.0 mi NW 16.1 mph 24.2 mph N/A   Overcast
8:35 AM 41.0 °F 33.5 °F 37.4 °F 87% 29.98 in 10.0 mi WNW 13.8 mph 18.4 mph N/A   Overcast
9:15 AM 39.2 °F 30.2 °F 35.6 °F 87% 30.01 in 10.0 mi WNW 17.3 mph 24.2 mph N/A   Overcast
9:35 AM 37.4 °F 28.2 °F 33.8 °F 87% 30.02 in 10.0 mi NW 16.1 mph 27.6 mph N/A   Overcast
9:55 AM 37.4 °F 28.2 °F 33.8 °F 87% 30.03 in 10.0 mi NW 16.1 mph 19.6 mph N/A   Overcast
10:15 AM 37.4 °F 28.2 °F 32.0 °F 81% 30.05 in 10.0 mi NW 16.1 mph 21.9 mph N/A   Overcast
10:35 AM 37.4 °F 27.8 °F 32.0 °F 81% 30.06 in 10.0 mi NW 17.3 mph - N/A   Overcast
10:55 AM 37.4 °F 28.5 °F 32.0 °F 81% 30.07 in 10.0 mi NW 15.0 mph - N/A   Overcast
11:15 AM 37.4 °F 30.3 °F 32.0 °F 81% 30.08 in 10.0 mi North 10.4 mph - N/A   Overcast
11:35 AM 37.4 °F 28.9 °F 32.0 °F 81% 30.10 in 10.0 mi NW 13.8 mph 17.3 mph N/A   Overcast
11:55 AM 35.6 °F 27.1 °F 32.0 °F 87% 30.11 in 10.0 mi NW 12.7 mph 20.7 mph N/A   Overcast
12:15 PM 35.6 °F 26.2 °F 32.0 °F 87% 30.11 in 10.0 mi NW 15.0 mph 18.4 mph N/A   Overcast
12:35 PM 35.6 °F 25.9 °F 32.0 °F 87% 30.12 in 10.0 mi WNW 16.1 mph 19.6 mph N/A   Overcast
12:55 PM 35.6 °F 26.6 °F 32.0 °F 87% 30.12 in 10.0 mi WNW 13.8 mph - N/A   Overcast
1:15 PM 35.6 °F 27.1 °F 32.0 °F 87% 30.12 in 10.0 mi NW 12.7 mph 19.6 mph N/A   Overcast
1:35 PM 35.6 °F 27.5 °F 32.0 °F 87% 30.12 in 10.0 mi WNW 11.5 mph - N/A   Overcast
2:15 PM 35.6 °F 27.1 °F 30.2 °F 81% 30.13 in 10.0 mi NW 12.7 mph 19.6 mph N/A   Overcast
2:35 PM 35.6 °F 27.5 °F 30.2 °F 81% 30.13 in 10.0 mi NNW 11.5 mph 17.3 mph N/A   Overcast
2:55 PM 35.6 °F 26.6 °F 30.2 °F 81% 30.14 in 10.0 mi WNW 13.8 mph 17.3 mph N/A   Overcast
3:15 PM 35.6 °F 26.6 °F 30.2 °F 81% 30.14 in 10.0 mi NW 13.8 mph 17.3 mph N/A   Overcast
3:35 PM 35.6 °F 28.0 °F 30.2 °F 81% 30.15 in 10.0 mi WNW 10.4 mph 17.3 mph N/A   Overcast
3:55 PM 35.6 °F 27.5 °F 30.2 °F 81% 30.15 in 10.0 mi NW 11.5 mph 17.3 mph N/A   Overcast
4:15 PM 35.6 °F 27.1 °F 30.2 °F 81% 30.17 in 10.0 mi NNW 12.7 mph - N/A   Overcast
4:35 PM 35.6 °F 25.9 °F 28.4 °F 75% 30.18 in 10.0 mi NW 16.1 mph 21.9 mph N/A   Overcast
4:55 PM 35.6 °F 27.5 °F 28.4 °F 75% 30.18 in 10.0 mi NW 11.5 mph 17.3 mph N/A   Overcast
5:15 PM 35.6 °F 28.6 °F 28.4 °F 75% 30.19 in 10.0 mi NNW 9.2 mph - N/A   Overcast
5:35 PM 35.6 °F 27.5 °F 28.4 °F 75% 30.20 in 10.0 mi NW 11.5 mph 18.4 mph N/A   Overcast
5:55 PM 35.6 °F 27.5 °F 28.4 °F 75% 30.21 in 10.0 mi NW 11.5 mph - N/A   Overcast
6:15 PM 33.8 °F 26.4 °F 28.4 °F 81% 30.23 in 10.0 mi NW 9.2 mph - N/A   Overcast
6:35 PM 33.8 °F 25.8 °F 28.4 °F 81% 30.24 in 10.0 mi NW 10.4 mph 16.1 mph N/A   Overcast
7:15 PM 33.8 °F 27.0 °F 28.4 °F 81% 30.25 in 10.0 mi NW 8.1 mph - N/A   Overcast
7:35 PM 33.8 °F 27.0 °F 28.4 °F 81% 30.25 in 10.0 mi NW 8.1 mph - N/A   Overcast
7:55 PM 33.8 °F 27.0 °F 28.4 °F 81% 30.27 in 10.0 mi NW 8.1 mph - N/A   Overcast
8:15 PM 33.8 °F 27.0 °F 28.4 °F 81% 30.27 in 10.0 mi NW 8.1 mph - N/A   Overcast
8:35 PM 33.8 °F 27.0 °F 28.4 °F 81% 30.28 in 10.0 mi NW 8.1 mph - N/A   Overcast
8:55 PM 33.8 °F 27.0 °F 28.4 °F 81% 30.28 in 10.0 mi NW 8.1 mph - N/A   Overcast
9:15 PM 33.8 °F 27.7 °F 28.4 °F 81% 30.29 in 10.0 mi NW 6.9 mph - N/A   Overcast
9:55 PM 33.8 °F 28.6 °F 28.4 °F 81% 30.30 in 10.0 mi NW 5.8 mph - N/A   Overcast
10:15 PM 33.8 °F 29.6 °F 28.4 °F 81% 30.30 in 10.0 mi WNW 4.6 mph - N/A   Overcast
10:35 PM 33.8 °F 28.6 °F 28.4 °F 81% 30.30 in 10.0 mi WNW 5.8 mph - N/A   Overcast
10:55 PM 33.8 °F 30.8 °F 28.4 °F 81% 30.30 in 10.0 mi WNW 3.5 mph - N/A   Overcast
11:15 PM 33.8 °F 30.8 °F 28.4 °F 81% 30.30 in 10.0 mi WNW 3.5 mph - N/A   Overcast
11:35 PM 33.8 °F 29.6 °F 28.4 °F 81% 30.30 in 10.0 mi NW 4.6 mph - N/A   Overcast
11:55 PM 33.8 °F 29.6 °F 28.4 °F 81% 30.30 in 10.0 mi NNW 4.6 mph - N/A   Overcast